Probability
0 0 0 0 0 0 0 0 0 0 0 0 0 0 0 0 0 0 0 0 0 0 0 0 0 0 0 0 0 0 0 0 0 0 0 0 0 0
0 0 0 0 0 0 0 0 0 0 0 0 0 0 0 0 0 0 0 0 0 0 0 0 0 0 0 0 0 0 0 0 0 0 0 0 0 0
0 0 0 0 0 0 0 0 0 0 0 0 0 0 0 0 0 0 0 0 0 0 0 0 0 0 0 0 0 0 0 0 0 0 0 0 0 0
0 0 0 0 0 0 0 0 0 0 0 0 0 0 0 0 0 0 0 0 0 0 0 0 0 0 0 0 0 0 0 0 0 0 0 0 0 0
0 0 0 0 0 0 0 0 0 0 0 0 0 0 0 0 0 0 0 0 0 0 0 0 0 0 0 0 0 0 0 0 0 0 0 0 0 0
0 0 0 0 0 0 0 0 0 0 0 0 0 0 0 0 0 0 0 0 0 0 0 0 0 0 0 0 0 0 0 0 0 0 0 0 0 0
0 0 0 0 0 0 0 0 0 0 0 0 0 0 0 0 0 0 0 0 0 0 0 0 0 0 0 0 0 0 0 0 0 0 0 0 0 0
0 0 0 0 0 0 0 0 0 0 0 0 0 0 0 0 0 0 0 0 0 0 0 0 0 0 0 0 0 0 0 0 0 0 0 0 0 0
0 0 0 0 0 0 0 0 0 0 0 0 0 0 0 0 0 0 0 0 0 0 0 0 0 0 0 0 0 0 0 0 0 0 0 0 0 0
0 0 0 0 0 0 0 0 0 0 0 0 0 0 0 0 0 0 0 0 0 0 0 0 0 0 0 0 0 0 0 0 0 0 0 0 0 0
0 0 0 0 0 0 0 0 0 0 0 0 0 0 0 0 0 0 0 0 0 0 0 0 0 0 0 0 0 0 0 0 0 0 0 0 0 0
0 0 0 0 0 0 0 0 0 0 0 0 0 0 0 0 0 0 0 0 0 0 0 0 0 0 0 0 0 0 0 0 0 0 0 0 0 0
0 0 0 0 0 0 0 0 0 0 0 0 0 0 0 0 0 0 0 0 0 0 0 0 0 0 0 0 0 0 0 0 0 0 0 0 0 0
0 0 0 0 0 0 0 0 0 0 0 0 0 0 0 0 0 0 0 0 0 0 0 0 0 0 0 0 0 0 0 0 0 0 0 0 0 0
0 0 0 0 0 0 0 0 0 0 0 0 0 0 0 0 0 0 0 0 0 0 0 0 0 0 0 0 0 0 0 0 0 0 0 0 0 0
0 0 0 0 0 0 0 0 0 0 0 0 0 0 0 0 0 0 0 0 0 0 0 0 0 0 0 0 0 0 0 0 0 0 0 0 0 0
0 0 0 0 0 0 0 0 0 0 0 0 0 0 0 0 0 0 0 0 0 0 0 0 0 0 0 0 0 0 0 0 0 0 0 0 0 0
0 0 0 0 0 0 0 0 0 0 0 0 0 0 0 0 0 0 0 0 0 0 0 0 0 0 0 0 0 0 0 0 0 0 0 0 0 0
0 0 0 0 0 0 0 0 0 0 0 0 0 0 0 0 0 0 0 0 0 0 0 0 0 0 0 0 0 0 0 0 0 0 0 0 0 0
0 0 0 0 0 0 0 0 0 0 0 0 0 0 0 0 0 0 0 0 0 0 0 0 0 0 0 0 0 0 0 0 0 0 0 0 0 0
0 0 0 0 0 0 0 0 0 0 0 0 0 0 0 0 0 0 0 0 0 0 0 0 0 0 0 0 0 0 0 0 0 0 0 0 0 0
0 0 0 0 0 0 0 0 0 0 0 0 0 0 0 0 0 0 0 0 0 0 0 0 0 0 0 0 0 0 0 0 0 0 0 0 0 0
0 0 0 0 0 0 0 0 0 0 0 0 0 0 0 0 0 0 0 0 0 0 0 0 0 0 0 0 0 0 0 0 0 0 0 0 0 0
Wind_Speed
3 3 3 2 1 1 1 2 3 3 4 3 2 2 2 1 2 2 2 3 5 6 6 6 6 7 7 8 8 9 9 9 9 10 10 11 12 13
2 3 3 2 2 1 2 2 2 3 4 2 2 2 1 2 2 2 3 4 5 6 6 6 6 7 7 8 8 9 9 10 10 10 11 12 13 13
2 3 3 2 2 2 1 1 2 2 4 3 2 1 1 2 2 2 2 2 3 6 7 6 7 7 7 8 9 9 10 10 10 11 11 12 13 13
3 3 3 2 2 2 2 2 2 3 3 5 3 2 2 2 2 2 2 2 3 6 7 7 7 7 8 8 9 9 9 10 10 10 11 12 13 13
4 4 4 3 3 2 2 3 2 2 2 3 3 2 2 1 2 2 3 3 3 4 5 6 7 8 8 9 9 9 9 10 10 10 10 12 12 13
3 3 3 4 4 3 3 3 2 2 2 2 3 2 2 2 1 2 3 2 3 3 4 5 6 7 8 9 9 9 9 10 10 10 10 11 11 12
2 2 2 3 3 3 3 3 2 2 2 2 3 2 2 2 2 2 3 3 3 2 2 3 3 3 4 7 8 9 10 10 10 10 10 10 10 11
1 1 1 1 2 3 3 3 4 4 4 4 3 4 4 3 2 2 2 3 3 1 2 3 2 3 4 3 8 10 10 10 10 10 10 10 10 10
1 1 1 1 1 1 2 2 3 4 5 5 5 5 4 4 3 3 3 4 4 2 2 4 2 4 4 5 9 9 9 9 9 9 9 10 10 10
0 1 1 1 1 1 1 2 2 3 4 3 4 4 4 3 3 3 4 3 3 2 1 3 2 3 4 4 8 9 9 9 9 9 10 10 10 10
2 1 1 2 3 2 1 2 3 3 4 5 5 4 5 4 2 1 1 1 3 2 1 2 2 3 3 4 5 8 8 9 9 9 9 10 10 9
2 2 2 3 3 2 1 2 3 4 3 3 3 4 3 3 2 2 2 2 2 3 1 1 2 2 3 3 3 4 4 7 9 9 9 9 9 5
2 2 3 5 5 4 3 3 4 3 2 2 2 2 2 2 2 2 1 2 3 4 2 1 2 1 2 3 3 3 3 3 4 5 8 9 9 7
2 2 3 6 6 6 4 4 4 3 1 1 2 2 2 2 2 2 3 3 3 4 3 2 2 2 2 3 4 3 3 3 3 4 4 7 8 9
2 4 6 7 6 4 5 5 3 1 1 2 3 3 2 2 2 2 2 2 2 2 1 1 2 2 2 3 3 3 3 3 3 3 3 4 4 4
3 3 5 5 4 4 3 3 2 1 2 2 3 2 2 1 2 2 2 2 2 2 2 2 2 2 3 3 4 4 3 3 3 3 4 4 4 3
2 2 1 2 2 2 2 2 2 2 2 2 2 2 2 2 2 2 1 1 2 2 3 2 2 2 3 3 4 4 3 4 3 3 4 5 4 4
1 1 1 2 2 2 3 3 3 3 3 2 2 3 3 3 3 2 2 2 3 3 3 2 1 2 2 2 4 4 3 3 3 3 3 4 6 4
1 1 2 2 3 3 3 3 3 3 3 3 3 3 3 3 3 3 3 3 3 3 3 2 1 1 2 4 4 3 3 3 3 3 3 4 6 6
1 2 2 3 3 3 4 4 4 3 3 3 3 3 3 3 3 3 3 3 3 3 3 2 2 3 4 4 3 3 4 3 3 4 4 4 5 7
2 2 2 3 3 3 3 4 4 4 4 3 3 3 3 3 4 4 4 4 4 3 4 4 4 3 2 1 2 3 3 4 4 4 4 4 5 4
3 3 3 3 3 4 4 3 4 4 4 4 4 4 3 4 4 5 4 4 4 4 5 4 2 1 1 3 4 4 4 4 5 7 7 6 3 3
4 4 3 4 4 4 4 4 5 5 4 4 4 4 4 4 4 4 4 4 4 4 4 3 2 1 2 3 4 4 4 5 4 4 4 7 9 11
Wind_Direction
205 204 206 216 211 218 202 191 199 242 257 240 242 254 239 242 269 258 265 294 293 292 294 294 293 290 288 286 285 286 286 288 290 292 294 297 298 298
198 197 213 216 213 215 214 229 225 225 251 246 236 251 258 270 278 264 264 288 287 288 288 289 292 294 291 288 287 287 287 288 290 292 294 296 297 298
199 198 217 215 213 220 220 227 241 234 251 275 266 268 257 269 290 280 278 273 281 284 284 287 291 293 295 295 291 288 289 289 289 291 293 293 295 297
203 201 219 217 225 224 222 231 240 240 239 265 278 279 271 283 294 290 296 294 285 290 286 290 292 295 296 297 299 299 297 294 293 293 295 296 296 297
205 205 216 209 227 236 233 235 240 246 244 249 271 287 294 318 313 305 301 294 294 290 293 293 292 293 294 296 297 299 300 298 294 293 294 294 295 296
208 209 214 213 220 226 232 238 238 243 242 245 263 280 286 302 297 289 298 294 291 293 292 296 298 297 296 296 297 298 296 293 292 291 292 293 295 297
211 211 217 228 237 231 230 230 222 232 238 246 255 267 270 282 268 272 278 293 286 272 290 291 292 292 296 296 296 295 293 294 295 294 294 295 296 299
217 220 227 219 256 259 258 245 230 227 234 238 249 250 255 260 268 267 276 289 281 272 273 282 274 277 287 285 294 293 292 296 297 297 297 298 300 302
217 227 276 297 261 287 288 283 265 258 245 239 247 250 254 250 250 259 261 263 265 281 290 283 281 278 287 290 290 288 296 299 300 303 305 305 305 306
283 250 260 290 292 305 301 291 281 273 271 263 257 264 266 261 243 252 259 269 285 293 258 268 282 286 296 288 291 290 295 300 303 306 306 305 305 306
334 321 296 290 300 309 290 284 293 295 298 287 283 284 288 279 263 253 269 270 279 278 233 253 287 302 297 289 294 299 300 303 305 308 309 311 313 314
340 332 306 306 307 303 274 266 278 291 304 306 300 304 304 301 286 245 225 240 262 270 241 226 273 311 302 293 304 309 301 301 303 305 308 311 312 314
324 325 321 319 305 295 282 267 277 292 286 285 290 301 314 319 311 301 269 241 239 247 238 212 242 253 258 290 301 300 298 304 307 300 301 305 308 308
307 312 313 317 313 302 290 290 297 302 288 285 287 290 290 291 291 284 272 263 263 256 244 220 231 236 247 272 282 294 301 298 294 294 296 302 303 304
304 306 309 310 313 312 307 304 306 291 272 267 270 273 278 281 287 289 286 278 289 299 288 256 237 244 243 253 270 281 294 293 285 293 303 302 298 299
318 311 311 313 316 316 319 315 308 296 282 272 276 282 293 292 286 283 279 286 281 293 298 270 249 233 249 262 262 273 273 275 288 290 296 297 294 288
321 318 322 325 326 326 326 317 311 307 294 296 291 286 280 275 277 277 270 273 256 272 288 300 288 269 256 251 262 262 268 280 286 298 303 300 292 284
334 294 300 304 298 300 301 298 291 285 284 282 281 279 275 270 272 269 256 248 258 267 272 277 297 326 325 287 243 252 261 274 288 293 288 294 298 296
351 299 292 293 295 296 292 287 285 285 283 276 274 276 279 276 270 266 257 254 260 264 264 249 231 223 264 283 283 245 254 278 289 292 282 276 288 296
302 279 283 287 289 293 295 296 292 291 286 281 277 273 270 273 270 265 259 253 260 267 267 246 229 229 235 253 267 278 272 269 273 281 292 292 289 296
283 277 276 281 285 286 287 289 292 290 284 275 271 268 264 263 268 266 260 256 252 252 256 258 254 245 242 248 270 277 278 276 279 276 282 295 303 304
271 273 274 273 276 278 282 285 286 284 285 279 272 267 261 256 260 263 258 253 249 248 256 267 270 220 198 227 255 271 288 301 304 306 293 274 266 271
266 268 269 271 271 273 274 276 278 280 279 276 273 272 269 263 259 260 258 252 251 252 255 265 264 233 233 236 253 270 283 295 304 307 302 303 294 286